Location: Klickitat County Star Party
(45.8642°N, 120.6771°W)
Time: 12:13:06
(UTC-07:00)

SO-50 - Pass Details

Date: 30 May 2019
Orbit: 586 x 700 km, 64.6° (Epoch: 17 June)

Event Time Altitude Azimuth Distance (km) Brightness Sun altitude
Rises 23:20:20 0° 328° (NNW) 3,092 ? -18.6°
Reaches altitude 10° 23:23:40 10° 351° (N) 2,166 ? -18.8°
Maximum altitude 23:26:36 16° 27° (NNE) 1,808 ? -19.0°
Drops below altitude 10° 23:29:30 10° 64° (ENE) 2,139 ? -19.2°
Enters shadow 23:32:40 - 86° (E) 3,008 ? -19.4°
